Weather History for Westfield, MA

Change the Weather History Date:

Monday, April 28, 2014

  Actual Average Record
Temperature  
Mean Temperature 50 °F -  
Max Temperature 66 °F 63 °F 81 °F (2003)
Min Temperature 36 °F 38 °F 28 °F (1998)
Degree Days  
Heating Degree Days 15    
Moisture  
Dew Point 34 °F    
Average Humidity 50    
Maximum Humidity 82    
Minimum Humidity 31    
Precipitation  
Precipitation 0.00 in - - ()
Sea Level Pressure  
Sea Level Pressure 30.07 in    
Wind  
Wind Speed 7 mph (NE)    
Max Wind Speed 16 mph    
Max Gust Speed 24 mph    
Visibility 10 miles    
Events      
Averages and records for this station are not official NWS values.
T = Trace of Precipitation, MM = Missing Value Source: NWS Daily Summary

Daily Weather History Graph

Daily Weather History Graph

Search for Another Location

Airport:

Trip Planner

Search our weather history database for the weather conditions in past years. The results will help you decide how hot, cold, wet, or windy it might be!

Date:

Astronomy

Apr. 28, 2014 Rise Set
Actual Time 5:50 AM EDT 7:46 PM EDT
Civil Twilight 5:20 AM EDT 8:17 PM EDT
Nautical Twilight 4:43 AM EDT 8:54 PM EDT
Astronomical Twilight 4:03 AM EDT 9:34 PM EDT
Moon 5:28 AM EDT (4/28) 7:21 PM EDT (4/28)
Length of Visible Light 14h 56m
Length of Day
13h 56m
Waning Crescent, 0% of the Moon is Illuminated
Apr 28
Waning Crescent
Apr 29
New
May 6
First Quarter
May 14
Full
May 21
Last Quarter

Hourly Weather History & Observations

Time (EDT) Temp. Windchill Dew Point Humidity Pressure Visibility Wind Dir Wind Speed Gust Speed Precip Events Conditions
12:53 AM 37.9 °F - 32.0 °F 79% 30.11 in 10.0 mi Calm Calm - N/A   Clear
1:53 AM 44.1 °F 37.1 °F 32.0 °F 63% 30.10 in 10.0 mi NW 15.0 mph - N/A   Clear
2:53 AM 42.1 °F 34.5 °F 32.0 °F 67% 30.08 in 10.0 mi NNW 15.0 mph - N/A   Clear
3:53 AM 41.0 °F 35.8 °F 32.0 °F 70% 30.06 in 10.0 mi NNW 8.1 mph - N/A   Clear
4:53 AM 37.9 °F - 30.9 °F 76% 30.04 in 10.0 mi Calm Calm - N/A   Clear
5:53 AM 36.0 °F 33.3 °F 30.9 °F 82% 30.06 in 10.0 mi Variable 3.5 mph - N/A   Clear
6:53 AM 39.0 °F - 33.1 °F 79% 30.08 in 10.0 mi Calm Calm - N/A   Clear
7:53 AM 48.0 °F - 34.0 °F 58% 30.08 in 10.0 mi NW 10.4 mph - N/A   Clear
8:53 AM 52.0 °F - 33.1 °F 49% 30.07 in 10.0 mi North 16.1 mph 24.2 mph N/A   Clear
9:53 AM 54.0 °F - 32.0 °F 43% 30.07 in 10.0 mi North 11.5 mph 19.6 mph N/A   Clear
10:53 AM 57.0 °F - 34.0 °F 42% 30.07 in 10.0 mi NE 9.2 mph 19.6 mph N/A   Clear
11:53 AM 60.1 °F - 32.0 °F 35% 30.04 in 10.0 mi North 12.7 mph - N/A   Scattered Clouds
12:53 PM 61.0 °F - 33.1 °F 35% 30.03 in 10.0 mi NE 11.5 mph 18.4 mph N/A   Clear
1:53 PM 64.0 °F - 34.0 °F 33% 30.01 in 10.0 mi NE 10.4 mph 19.6 mph N/A   Clear
2:53 PM 63.0 °F - 33.1 °F 33% 30.01 in 10.0 mi North - - N/A   Clear
3:53 PM 64.9 °F - 34.0 °F 32% 30.01 in 10.0 mi Calm Calm - N/A   Clear
3:56 PM 64.9 °F - 33.1 °F 31% 30.01 in 10.0 mi NNE 8.1 mph - N/A   Scattered Clouds
4:53 PM 64.9 °F - 34.0 °F 32% 30.02 in 10.0 mi Variable 6.9 mph - N/A   Scattered Clouds
5:53 PM 63.0 °F - 34.0 °F 34% 30.03 in 10.0 mi NE 9.2 mph - N/A   Overcast
5:54 PM 63.0 °F - 34.0 °F 34% 30.02 in 10.0 mi NE 10.4 mph - N/A   Mostly Cloudy
6:53 PM 61.0 °F - 36.0 °F 39% 30.06 in 10.0 mi East 8.1 mph - N/A   Overcast
7:53 PM 59.0 °F - 36.0 °F 42% 30.09 in 10.0 mi East 6.9 mph - N/A   Overcast
8:53 PM 57.9 °F - 37.0 °F 46% 30.11 in 10.0 mi East 9.2 mph - N/A   Overcast
9:53 PM 53.1 °F - 37.0 °F 55% 30.17 in 10.0 mi East 10.4 mph 18.4 mph N/A   Overcast
10:53 PM 51.1 °F - 37.9 °F 61% 30.19 in 10.0 mi SE 5.8 mph - N/A   Overcast
11:53 PM 51.1 °F - 37.9 °F 61% 30.21 in 10.0 mi Calm Calm - N/A   Overcast